Flag for Estonia Weather past 2 weeks in Narva, Estonia

Now
54 °F

Fog.


Feels Like: 54 °F
Forecast: 52 / 71 °F
Wind: 1 mph from Northwest

Location: Narva

Current Time: Jul 6, 2015 at 12:37:01 AM

Latest Report: Jul 5, 2015 at 11:00 PM


Visibility: 1 mi

Pressure: 30.03 "Hg

Humidity: 95%

Dew point: 53 °F

Location of NarvaLocation

Historic Weather in Narva — Graph

°F

Narva temperature yesterday

Maximum temperature yesterday: 68 °F (at 1:00 AM)
Minimum temperature yesterday: 59 °F (at 10:00 PM)
Average temperature yesterday: 65 °F

Past Weeks' High & Low Weather Summary

 TemperatureHumidityPressure
High83 °F (Jul 3, 1:00 PM)100% (Jun 22, 4:00 AM)30.36 "Hg (Jun 22, 4:00 AM)
Low43 °F (Jun 29, 1:00 AM)37% (Jul 2, 7:00 PM)29.74 "Hg (Jun 24, 8:00 AM)
Average61 °F74%29.98 "Hg
* Reported Jun 20 10:00 PM — Jul 5 10:00 PM, Narva, Weather by CustomWeather, © 2015

Note: Actual official high and low records may vary slightly from our data, if they occured in-between our weather recording intervals... More about our weather records

Advertising

Narva weather history for previous 24 hours

 ConditionsComfort  
Time TempWeatherWind HumidityBarometerVisibility
10:00 PM
Sun, Jul 5
59 °FPassing clouds.1 mph88%30.03 "Hg12 mi
9:00 PM63 °FSunny.3 mph81%30.03 "Hg12 mi
8:00 PM66 °FSunny.3 mph68%30.03 "Hg12 mi
7:00 PM66 °FSunny.5 mph64%30.03 "Hg12 mi
6:00 PM67 °FSunny.5 mph60%30.03 "Hg12 mi
5:00 PM67 °FPassing clouds.5 mph60%30.04 "Hg12 mi
4:00 PM68 °FPassing clouds.5 mph55%30.05 "Hg12 mi
3:00 PM68 °FSunny.5 mph54%30.05 "Hg12 mi
2:00 PM67 °FSunny.5 mph54%30.05 "Hg12 mi
1:00 PM66 °FSunny.6 mph58%30.05 "Hg12 mi
12:00 PM66 °FSunny.6 mph63%30.04 "Hg12 mi
11:00 AM67 °FSunny.5 mph64%30.03 "Hg12 mi
10:00 AM66 °FPassing clouds.5 mph68%30.01 "Hg12 mi
9:00 AM64 °FPassing clouds.5 mph75%30.01 "Hg12 mi
8:00 AM65 °FSunny.5 mph77%29.99 "Hg12 mi
7:00 AM64 °FSunny.5 mph78%29.98 "Hg12 mi
6:00 AM63 °FPartly sunny.5 mph81%29.96 "Hg12 mi
5:00 AM62 °FPassing clouds.2 mph84%29.95 "Hg12 mi
4:00 AM62 °FSunny.2 mph82%29.94 "Hg12 mi
3:00 AM64 °FClear.6 mph73%29.93 "Hg12 mi
2:00 AM65 °FPassing clouds.7 mph75%29.93 "Hg12 mi
1:00 AM68 °FClear.7 mph76%29.93 "Hg12 mi
Weather by CustomWeather, © 2015

See weather overviewHow to use our weather pages